Year,Month,Day,Hour,Minute,Value (Times are PST for windspeed in km/hr)
2015,08,31,00,00,5.80
2015,08,31,00,01,4.00
2015,08,31,00,02,4.80
2015,08,31,00,03,3.40
2015,08,31,00,04,4.10
2015,08,31,00,05,5.40
2015,08,31,00,06,4.50
2015,08,31,00,07,6.80
2015,08,31,00,08,7.90
2015,08,31,00,09,5.40
2015,08,31,00,10,3.90
2015,08,31,00,11,6.00
2015,08,31,00,12,8.90
2015,08,31,00,13,3.50
2015,08,31,00,14,7.90
2015,08,31,00,15,7.00
2015,08,31,00,16,6.40
2015,08,31,00,17,4.70
2015,08,31,00,18,5.50
2015,08,31,00,19,7.50
2015,08,31,00,20,4.50
2015,08,31,00,21,5.20
2015,08,31,00,22,3.60
2015,08,31,00,23,1.40
2015,08,31,00,24,1.10
2015,08,31,00,25,2.10
2015,08,31,00,26,2.70
2015,08,31,00,27,1.20
2015,08,31,00,28,2.00
2015,08,31,00,29,4.80
2015,08,31,00,30,3.90
2015,08,31,00,31,2.70
2015,08,31,00,32,3.30
2015,08,31,00,33,3.00
2015,08,31,00,34,1.00
2015,08,31,00,35,5.20
2015,08,31,00,36,5.90
2015,08,31,00,37,3.80
2015,08,31,00,38,4.00
2015,08,31,00,39,6.30
2015,08,31,00,40,7.90
2015,08,31,00,41,3.80
2015,08,31,00,42,6.00
2015,08,31,00,43,6.80
2015,08,31,00,44,6.40
2015,08,31,00,45,9.30
2015,08,31,00,46,4.30
2015,08,31,00,47,4.20
2015,08,31,00,48,6.10
2015,08,31,00,49,5.80
2015,08,31,00,50,5.70
2015,08,31,00,51,5.50
2015,08,31,00,52,4.90
2015,08,31,00,53,4.60
2015,08,31,00,54,4.90
2015,08,31,00,55,5.70
2015,08,31,00,56,2.60
2015,08,31,00,57,3.20
2015,08,31,00,58,4.30
2015,08,31,00,59,5.20
2015,08,31,01,00,2.50
2015,08,31,01,01,1.80
2015,08,31,01,02,7.20
2015,08,31,01,03,3.60
2015,08,31,01,04,0.70
2015,08,31,01,05,2.10
2015,08,31,01,06,0.70
2015,08,31,01,07,1.70
2015,08,31,01,08,0.90
2015,08,31,01,09,0.70
2015,08,31,01,10,1.00
2015,08,31,01,11,0.80
2015,08,31,01,12,1.40
2015,08,31,01,13,2.70
2015,08,31,01,14,2.80
2015,08,31,01,15,0.80
2015,08,31,01,16,0.50
2015,08,31,01,17,0.40
2015,08,31,01,18,0.80
2015,08,31,01,19,0.00
2015,08,31,01,20,0.00
2015,08,31,01,21,0.00
2015,08,31,01,22,0.50
2015,08,31,01,23,0.10
2015,08,31,01,24,1.00
2015,08,31,01,25,0.10
2015,08,31,01,26,0.00
2015,08,31,01,27,0.40
2015,08,31,01,28,0.20
2015,08,31,01,29,1.00
2015,08,31,01,30,0.00
2015,08,31,01,31,0.30
2015,08,31,01,32,1.80
2015,08,31,01,33,6.20
2015,08,31,01,34,5.20
2015,08,31,01,35,1.60
2015,08,31,01,36,1.10
2015,08,31,01,37,0.40
2015,08,31,01,38,0.80
2015,08,31,01,39,0.20
2015,08,31,01,40,4.30
2015,08,31,01,41,1.60
2015,08,31,01,42,1.10
2015,08,31,01,43,2.80
2015,08,31,01,44,2.70
2015,08,31,01,45,1.80
2015,08,31,01,46,2.60
2015,08,31,01,47,3.90
2015,08,31,01,48,4.80
2015,08,31,01,49,5.70
2015,08,31,01,50,4.40
2015,08,31,01,51,3.50
2015,08,31,01,52,4.20
2015,08,31,01,53,3.00
2015,08,31,01,54,3.70
2015,08,31,01,55,2.70
2015,08,31,01,56,2.90
2015,08,31,01,57,4.00
2015,08,31,01,58,3.30
2015,08,31,01,59,3.70
2015,08,31,02,00,5.40
2015,08,31,02,01,4.00
2015,08,31,02,02,3.70
2015,08,31,02,03,3.10
2015,08,31,02,04,4.80
2015,08,31,02,05,2.60
2015,08,31,02,06,5.20
2015,08,31,02,07,4.20
2015,08,31,02,08,3.90
2015,08,31,02,09,2.60
2015,08,31,02,10,1.70
2015,08,31,02,11,0.40
2015,08,31,02,12,5.00
2015,08,31,02,13,4.20
2015,08,31,02,14,1.80
2015,08,31,02,15,3.80
2015,08,31,02,16,2.70
2015,08,31,02,17,2.60
2015,08,31,02,18,1.70
2015,08,31,02,19,2.10
2015,08,31,02,20,1.50
2015,08,31,02,21,4.80
2015,08,31,02,22,4.50
2015,08,31,02,23,4.20
2015,08,31,02,24,1.90
2015,08,31,02,25,0.60
2015,08,31,02,26,1.30
2015,08,31,02,27,0.70
2015,08,31,02,28,1.20
2015,08,31,02,29,2.60
2015,08,31,02,30,3.90
2015,08,31,02,31,2.30
2015,08,31,02,32,2.40
2015,08,31,02,33,2.90
2015,08,31,02,34,2.40
2015,08,31,02,35,1.70
2015,08,31,02,36,3.50
2015,08,31,02,37,2.60
2015,08,31,02,38,3.00
2015,08,31,02,39,2.40
2015,08,31,02,40,4.50
2015,08,31,02,41,5.50
2015,08,31,02,42,6.70
2015,08,31,02,43,4.30
2015,08,31,02,44,2.30
2015,08,31,02,45,4.30
2015,08,31,02,46,7.40
2015,08,31,02,47,4.60
2015,08,31,02,48,5.10
2015,08,31,02,49,5.50
2015,08,31,02,50,5.50
2015,08,31,02,51,3.50
2015,08,31,02,52,8.00
2015,08,31,02,53,6.10
2015,08,31,02,54,5.20
2015,08,31,02,55,3.60
2015,08,31,02,56,3.60
2015,08,31,02,57,5.10
2015,08,31,02,58,4.80
2015,08,31,02,59,3.30
2015,08,31,03,00,4.60
2015,08,31,03,01,4.50
2015,08,31,03,02,3.90
2015,08,31,03,03,4.20
2015,08,31,03,04,5.10
2015,08,31,03,05,3.40
2015,08,31,03,06,4.60
2015,08,31,03,07,5.60
2015,08,31,03,08,5.10
2015,08,31,03,09,3.10
2015,08,31,03,10,3.90
2015,08,31,03,11,3.30
2015,08,31,03,12,2.30
2015,08,31,03,13,2.60
2015,08,31,03,14,1.40
2015,08,31,03,15,2.50
2015,08,31,03,16,5.30
2015,08,31,03,17,4.10
2015,08,31,03,18,3.60
2015,08,31,03,19,3.80
2015,08,31,03,20,2.50
2015,08,31,03,21,4.80
2015,08,31,03,22,5.40
2015,08,31,03,23,5.40
2015,08,31,03,24,5.70
2015,08,31,03,25,3.10
2015,08,31,03,26,6.70
2015,08,31,03,27,6.30
2015,08,31,03,28,3.40
2015,08,31,03,29,6.00
2015,08,31,03,30,4.90
2015,08,31,03,31,3.70
2015,08,31,03,32,2.20
2015,08,31,03,33,3.60
2015,08,31,03,34,5.90
2015,08,31,03,35,4.10
2015,08,31,03,36,2.70
2015,08,31,03,37,5.10
2015,08,31,03,38,5.40
2015,08,31,03,39,4.50
2015,08,31,03,40,3.50
2015,08,31,03,41,5.20
2015,08,31,03,42,5.40
2015,08,31,03,43,2.70
2015,08,31,03,44,1.30
2015,08,31,03,45,4.10
2015,08,31,03,46,2.60
2015,08,31,03,47,2.30
2015,08,31,03,48,0.30
2015,08,31,03,49,1.20
2015,08,31,03,50,3.00
2015,08,31,03,51,3.10
2015,08,31,03,52,2.90
2015,08,31,03,53,3.20
2015,08,31,03,54,3.20
2015,08,31,03,55,3.30
2015,08,31,03,56,4.00
2015,08,31,03,57,2.30
2015,08,31,03,58,2.90
2015,08,31,03,59,3.60
2015,08,31,04,00,3.40
2015,08,31,04,01,3.50
2015,08,31,04,02,2.20
2015,08,31,04,03,2.50
2015,08,31,04,04,2.00
2015,08,31,04,05,0.70
2015,08,31,04,06,1.00
2015,08,31,04,07,0.70
2015,08,31,04,08,1.40
2015,08,31,04,09,1.00
2015,08,31,04,10,0.00
2015,08,31,04,11,0.00
2015,08,31,04,12,0.00
2015,08,31,04,13,0.60
2015,08,31,04,14,2.00
2015,08,31,04,15,1.40
2015,08,31,04,16,2.00
2015,08,31,04,17,2.00
2015,08,31,04,18,2.40
2015,08,31,04,19,3.60
2015,08,31,04,20,3.50
2015,08,31,04,21,3.70
2015,08,31,04,22,3.90
2015,08,31,04,23,3.40
2015,08,31,04,24,2.60
2015,08,31,04,25,4.10
2015,08,31,04,26,2.50
2015,08,31,04,27,1.80
2015,08,31,04,28,1.50
2015,08,31,04,29,2.60
2015,08,31,04,30,0.80
2015,08,31,04,31,2.40
2015,08,31,04,32,2.20
2015,08,31,04,33,2.40
2015,08,31,04,34,3.50
2015,08,31,04,35,1.50
2015,08,31,04,36,1.80
2015,08,31,04,37,1.30
2015,08,31,04,38,3.70
2015,08,31,04,39,2.20
2015,08,31,04,40,2.20
2015,08,31,04,41,2.10
2015,08,31,04,42,2.30
2015,08,31,04,43,2.20
2015,08,31,04,44,4.00
2015,08,31,04,45,2.00
2015,08,31,04,46,1.80
2015,08,31,04,47,4.00
2015,08,31,04,48,2.30
2015,08,31,04,49,2.70
2015,08,31,04,50,2.60
2015,08,31,04,51,2.00
2015,08,31,04,52,2.30
2015,08,31,04,53,2.30
2015,08,31,04,54,2.30
2015,08,31,04,55,3.80
2015,08,31,04,56,1.40
2015,08,31,04,57,0.10
2015,08,31,04,58,0.60
2015,08,31,04,59,1.20
2015,08,31,05,00,1.30
2015,08,31,05,01,0.40
2015,08,31,05,02,0.00
2015,08,31,05,03,0.60
2015,08,31,05,04,1.70
2015,08,31,05,05,2.00
2015,08,31,05,06,1.50
2015,08,31,05,07,1.70
2015,08,31,05,08,2.00
2015,08,31,05,09,1.40
2015,08,31,05,10,1.40
2015,08,31,05,11,1.90
2015,08,31,05,12,0.70
2015,08,31,05,13,0.90
2015,08,31,05,14,1.70
2015,08,31,05,15,1.70
2015,08,31,05,16,3.20
2015,08,31,05,17,2.90
2015,08,31,05,18,1.80
2015,08,31,05,19,1.20
2015,08,31,05,20,1.60
2015,08,31,05,21,1.40
2015,08,31,05,22,2.90
2015,08,31,05,23,2.90
2015,08,31,05,24,1.50
2015,08,31,05,25,1.70
2015,08,31,05,26,1.70
2015,08,31,05,27,1.80
2015,08,31,05,28,1.40
2015,08,31,05,29,0.80
2015,08,31,05,30,0.70
2015,08,31,05,31,0.10
2015,08,31,05,32,0.00
2015,08,31,05,33,0.20
2015,08,31,05,34,0.50
2015,08,31,05,35,0.00
2015,08,31,05,36,0.00
2015,08,31,05,37,0.00
2015,08,31,05,38,0.00
2015,08,31,05,39,0.00
2015,08,31,05,40,0.00
2015,08,31,05,41,0.00
2015,08,31,05,42,0.00
2015,08,31,05,43,0.00
2015,08,31,05,44,0.00
2015,08,31,05,45,0.00
2015,08,31,05,46,0.00
2015,08,31,05,47,0.00
2015,08,31,05,48,0.00
2015,08,31,05,49,0.00
2015,08,31,05,50,0.00
2015,08,31,05,51,0.00
2015,08,31,05,52,0.00
2015,08,31,05,53,0.00
2015,08,31,05,54,0.00
2015,08,31,05,55,0.00
2015,08,31,05,56,0.00
2015,08,31,05,57,0.00
2015,08,31,05,58,0.00
2015,08,31,05,59,0.00
2015,08,31,06,00,0.70
2015,08,31,06,01,2.30
2015,08,31,06,02,2.00
2015,08,31,06,03,0.50
2015,08,31,06,04,0.20
2015,08,31,06,05,0.00
2015,08,31,06,06,0.00
2015,08,31,06,07,0.00
2015,08,31,06,08,0.00
2015,08,31,06,09,0.00
2015,08,31,06,10,0.70
2015,08,31,06,11,1.30
2015,08,31,06,12,0.80
2015,08,31,06,13,0.10
2015,08,31,06,14,0.00
2015,08,31,06,15,0.00
2015,08,31,06,16,0.00
2015,08,31,06,17,0.00
2015,08,31,06,18,0.00
2015,08,31,06,19,0.00
2015,08,31,06,20,0.00
2015,08,31,06,21,0.00
2015,08,31,06,22,0.50
2015,08,31,06,23,0.00
2015,08,31,06,24,0.10
2015,08,31,06,25,0.00
2015,08,31,06,26,0.00
2015,08,31,06,27,0.00
2015,08,31,06,28,0.00
2015,08,31,06,29,0.30
2015,08,31,06,30,1.00
2015,08,31,06,31,0.80
2015,08,31,06,32,0.30
2015,08,31,06,33,0.00
2015,08,31,06,34,0.00
2015,08,31,06,35,0.00
2015,08,31,06,36,0.00
2015,08,31,06,37,0.00
2015,08,31,06,38,0.00
2015,08,31,06,39,0.00
2015,08,31,06,40,0.00
2015,08,31,06,41,0.00
2015,08,31,06,42,0.00
2015,08,31,06,43,0.00
2015,08,31,06,44,0.00
2015,08,31,06,45,0.00
2015,08,31,06,46,0.00
2015,08,31,06,47,0.00
2015,08,31,06,48,0.00
2015,08,31,06,49,0.00
2015,08,31,06,50,0.00
2015,08,31,06,51,0.00
2015,08,31,06,52,0.00
2015,08,31,06,53,0.00
2015,08,31,06,54,0.00
2015,08,31,06,55,0.10
2015,08,31,06,56,0.00
2015,08,31,06,57,0.00
2015,08,31,06,58,0.00
2015,08,31,06,59,0.00
2015,08,31,07,00,0.00
2015,08,31,07,01,0.00
2015,08,31,07,02,0.00
2015,08,31,07,03,0.00
2015,08,31,07,04,0.00
2015,08,31,07,05,0.00
2015,08,31,07,06,0.00
2015,08,31,07,07,0.00
2015,08,31,07,08,0.00
2015,08,31,07,09,0.00
2015,08,31,07,10,0.00
2015,08,31,07,11,0.00
2015,08,31,07,12,0.00
2015,08,31,07,13,0.00
2015,08,31,07,14,0.00
2015,08,31,07,15,0.00
2015,08,31,07,16,0.00
2015,08,31,07,17,0.00
2015,08,31,07,18,0.00
2015,08,31,07,19,0.00
2015,08,31,07,20,0.00
2015,08,31,07,21,0.00
2015,08,31,07,22,0.00
2015,08,31,07,23,0.00
2015,08,31,07,24,0.00
2015,08,31,07,25,0.00
2015,08,31,07,26,0.00
2015,08,31,07,27,0.00
2015,08,31,07,28,0.00
2015,08,31,07,29,0.00
2015,08,31,07,30,0.00
2015,08,31,07,31,0.00
2015,08,31,07,32,0.00
2015,08,31,07,33,0.00
2015,08,31,07,34,0.00
2015,08,31,07,35,0.00
2015,08,31,07,36,0.00
2015,08,31,07,37,0.00
2015,08,31,07,38,0.00
2015,08,31,07,39,0.00
2015,08,31,07,40,0.00
2015,08,31,07,41,0.00
2015,08,31,07,42,0.00
2015,08,31,07,43,0.00
2015,08,31,07,44,0.00
2015,08,31,07,45,0.00
2015,08,31,07,46,0.00
2015,08,31,07,47,0.00
2015,08,31,07,48,0.00
2015,08,31,07,49,0.00
2015,08,31,07,50,0.00
2015,08,31,07,51,0.00
2015,08,31,07,52,0.00
2015,08,31,07,53,0.00
2015,08,31,07,54,0.00
2015,08,31,07,55,0.00
2015,08,31,07,56,0.00
2015,08,31,07,57,0.00
2015,08,31,07,58,0.00
2015,08,31,07,59,0.00
2015,08,31,08,00,0.10
2015,08,31,08,01,1.60
2015,08,31,08,02,1.30
2015,08,31,08,03,0.80
2015,08,31,08,04,0.00
2015,08,31,08,05,0.00
2015,08,31,08,06,0.10
2015,08,31,08,07,0.20
2015,08,31,08,08,0.00
2015,08,31,08,09,0.10
2015,08,31,08,10,0.10
2015,08,31,08,11,0.00
2015,08,31,08,12,0.10
2015,08,31,08,13,0.30
2015,08,31,08,14,0.10
2015,08,31,08,15,0.30
2015,08,31,08,16,1.10
2015,08,31,08,17,1.90
2015,08,31,08,18,1.20
2015,08,31,08,19,1.40
2015,08,31,08,20,1.10
2015,08,31,08,21,0.00
2015,08,31,08,22,0.00
2015,08,31,08,23,0.00
2015,08,31,08,24,0.00
2015,08,31,08,25,0.00
2015,08,31,08,26,0.00
2015,08,31,08,27,0.00
2015,08,31,08,28,0.00
2015,08,31,08,29,0.00
2015,08,31,08,30,0.00
2015,08,31,08,31,0.00
2015,08,31,08,32,0.00
2015,08,31,08,33,0.00
2015,08,31,08,34,0.00
2015,08,31,08,35,0.00
2015,08,31,08,36,0.00
2015,08,31,08,37,0.00
2015,08,31,08,38,0.00
2015,08,31,08,39,0.00
2015,08,31,08,40,0.80
2015,08,31,08,41,2.70
2015,08,31,08,42,1.90
2015,08,31,08,43,1.90
2015,08,31,08,44,2.40
2015,08,31,08,45,3.00
2015,08,31,08,46,0.80
2015,08,31,08,47,1.00
2015,08,31,08,48,0.10
2015,08,31,08,49,0.00
2015,08,31,08,50,0.70
2015,08,31,08,51,2.30
2015,08,31,08,52,2.20
2015,08,31,08,53,3.30
2015,08,31,08,54,2.30
2015,08,31,08,55,0.80
2015,08,31,08,56,0.60
2015,08,31,08,57,1.10
2015,08,31,08,58,1.60
2015,08,31,08,59,0.60
2015,08,31,09,00,0.30
2015,08,31,09,01,1.30
2015,08,31,09,02,1.10
2015,08,31,09,03,0.60
2015,08,31,09,04,1.00
2015,08,31,09,05,1.70
2015,08,31,09,06,1.30
2015,08,31,09,07,2.60
2015,08,31,09,08,2.10
2015,08,31,09,09,2.30
2015,08,31,09,10,2.00
2015,08,31,09,11,2.80
2015,08,31,09,12,1.90
2015,08,31,09,13,1.50
2015,08,31,09,14,0.60
2015,08,31,09,15,1.60
2015,08,31,09,16,2.70
2015,08,31,09,17,2.30
2015,08,31,09,18,2.20
2015,08,31,09,19,2.00
2015,08,31,09,20,1.80
2015,08,31,09,21,1.40
2015,08,31,09,22,0.80
2015,08,31,09,23,1.90
2015,08,31,09,24,1.20
2015,08,31,09,25,1.30
2015,08,31,09,26,0.10
2015,08,31,09,27,0.30
2015,08,31,09,28,0.00
2015,08,31,09,29,0.10
2015,08,31,09,30,1.40
2015,08,31,09,31,0.70
2015,08,31,09,32,0.50
2015,08,31,09,33,0.00
2015,08,31,09,34,1.10
2015,08,31,09,35,2.80
2015,08,31,09,36,2.60
2015,08,31,09,37,1.90
2015,08,31,09,38,0.90
2015,08,31,09,39,1.80
2015,08,31,09,40,2.90
2015,08,31,09,41,1.30
2015,08,31,09,42,0.20
2015,08,31,09,43,1.60
2015,08,31,09,44,0.90
2015,08,31,09,45,1.80
2015,08,31,09,46,1.80
2015,08,31,09,47,1.30
2015,08,31,09,48,2.70
2015,08,31,09,49,1.90
2015,08,31,09,50,1.30
2015,08,31,09,51,1.00
2015,08,31,09,52,1.60
2015,08,31,09,53,2.10
2015,08,31,09,54,1.70
2015,08,31,09,55,0.90
2015,08,31,09,56,2.00
2015,08,31,09,57,2.20
2015,08,31,09,58,2.00
2015,08,31,09,59,1.60
2015,08,31,10,00,0.70
2015,08,31,10,01,1.60
2015,08,31,10,02,1.70
2015,08,31,10,03,0.80
2015,08,31,10,04,1.90
2015,08,31,10,05,3.40
2015,08,31,10,06,2.30
2015,08,31,10,07,1.60
2015,08,31,10,08,0.50
2015,08,31,10,09,0.70
2015,08,31,10,10,0.60
2015,08,31,10,11,0.10
2015,08,31,10,12,0.10
2015,08,31,10,13,0.40
2015,08,31,10,14,0.80
2015,08,31,10,15,2.10
2015,08,31,10,16,2.40
2015,08,31,10,17,2.80
2015,08,31,10,18,2.30
2015,08,31,10,19,1.70
2015,08,31,10,20,0.80
2015,08,31,10,21,2.20
2015,08,31,10,22,1.10
2015,08,31,10,23,0.90
2015,08,31,10,24,1.30
2015,08,31,10,25,1.10
2015,08,31,10,26,1.90
2015,08,31,10,27,0.20
2015,08,31,10,28,1.90
2015,08,31,10,29,0.80
2015,08,31,10,30,1.30
2015,08,31,10,31,1.40
2015,08,31,10,32,1.90
2015,08,31,10,33,0.50
2015,08,31,10,34,0.00
2015,08,31,10,35,0.00
2015,08,31,10,36,0.00
2015,08,31,10,37,0.00
2015,08,31,10,38,0.00
2015,08,31,10,39,0.00
2015,08,31,10,40,0.00
2015,08,31,10,41,0.00
2015,08,31,10,42,0.00
2015,08,31,10,43,0.80
2015,08,31,10,44,2.00
2015,08,31,10,45,2.00
2015,08,31,10,46,0.60
2015,08,31,10,47,0.30
2015,08,31,10,48,1.70
2015,08,31,10,49,1.80
2015,08,31,10,50,1.60
2015,08,31,10,51,1.50
2015,08,31,10,52,1.90
2015,08,31,10,53,1.60
2015,08,31,10,54,3.40
2015,08,31,10,55,3.60
2015,08,31,10,56,3.00
2015,08,31,10,57,2.30
2015,08,31,10,58,0.50
2015,08,31,10,59,2.10
2015,08,31,11,00,2.00
2015,08,31,11,01,2.40
2015,08,31,11,02,3.40
2015,08,31,11,03,3.90
2015,08,31,11,04,2.00
2015,08,31,11,05,0.60
2015,08,31,11,06,0.20
2015,08,31,11,07,2.20
2015,08,31,11,08,3.00
2015,08,31,11,09,0.40
2015,08,31,11,10,1.90
2015,08,31,11,11,1.40
2015,08,31,11,12,0.60
2015,08,31,11,13,0.50
2015,08,31,11,14,1.60
2015,08,31,11,15,1.70
2015,08,31,11,16,1.00
2015,08,31,11,17,1.40
2015,08,31,11,18,1.70
2015,08,31,11,19,2.10
2015,08,31,11,20,0.70
2015,08,31,11,21,3.40
2015,08,31,11,22,4.00
2015,08,31,11,23,2.50
2015,08,31,11,24,2.50
2015,08,31,11,25,3.90
2015,08,31,11,26,2.00
2015,08,31,11,27,2.40
2015,08,31,11,28,2.30
2015,08,31,11,29,2.20
2015,08,31,11,30,2.70
2015,08,31,11,31,4.30
2015,08,31,11,32,3.70
2015,08,31,11,33,3.90
2015,08,31,11,34,2.40
2015,08,31,11,35,2.30
2015,08,31,11,36,3.10
2015,08,31,11,37,2.60
2015,08,31,11,38,2.30
2015,08,31,11,39,2.00
2015,08,31,11,40,2.40
2015,08,31,11,41,3.10
2015,08,31,11,42,2.90
2015,08,31,11,43,5.70
2015,08,31,11,44,5.00
2015,08,31,11,45,5.10
2015,08,31,11,46,4.90
2015,08,31,11,47,6.50
2015,08,31,11,48,5.20
2015,08,31,11,49,4.90
2015,08,31,11,50,4.80
2015,08,31,11,51,2.00
2015,08,31,11,52,4.50
2015,08,31,11,53,4.60
2015,08,31,11,54,4.80
2015,08,31,11,55,5.40
2015,08,31,11,56,5.20
2015,08,31,11,57,4.60
2015,08,31,11,58,5.20
2015,08,31,11,59,3.50
2015,08,31,12,00,3.20
2015,08,31,12,01,5.10
2015,08,31,12,02,5.40
2015,08,31,12,03,2.60
2015,08,31,12,04,6.40
2015,08,31,12,05,6.90
2015,08,31,12,06,4.80
2015,08,31,12,07,3.00
2015,08,31,12,08,1.70
2015,08,31,12,09,2.80
2015,08,31,12,10,4.00
2015,08,31,12,11,3.90
2015,08,31,12,12,4.40
2015,08,31,12,13,6.10
2015,08,31,12,14,5.10
2015,08,31,12,15,6.10
2015,08,31,12,16,3.50
2015,08,31,12,17,2.50
2015,08,31,12,18,2.10
2015,08,31,12,19,4.60
2015,08,31,12,20,5.10
2015,08,31,12,21,4.60
2015,08,31,12,22,4.60
2015,08,31,12,23,3.00
2015,08,31,12,24,3.90
2015,08,31,12,25,1.00
2015,08,31,12,26,2.60
2015,08,31,12,27,3.60
2015,08,31,12,28,4.70
2015,08,31,12,29,4.20
2015,08,31,12,30,3.10
2015,08,31,12,31,5.80
2015,08,31,12,32,4.90
2015,08,31,12,33,3.30
2015,08,31,12,34,4.50
2015,08,31,12,35,4.00
2015,08,31,12,36,2.50
2015,08,31,12,37,4.20
2015,08,31,12,38,4.60
2015,08,31,12,39,3.30
2015,08,31,12,40,5.70
2015,08,31,12,41,4.30
2015,08,31,12,42,3.00
2015,08,31,12,43,2.90
2015,08,31,12,44,6.80
2015,08,31,12,45,3.30
2015,08,31,12,46,4.30
2015,08,31,12,47,6.20
2015,08,31,12,48,4.90
2015,08,31,12,49,6.30
2015,08,31,12,50,8.00
2015,08,31,12,51,6.20
2015,08,31,12,52,3.80
2015,08,31,12,53,3.80
2015,08,31,12,54,4.50
2015,08,31,12,55,3.50
2015,08,31,12,56,5.00
2015,08,31,12,57,4.10
2015,08,31,12,58,4.10
2015,08,31,12,59,6.10
2015,08,31,13,00,5.70
2015,08,31,13,01,8.60
2015,08,31,13,02,5.40
2015,08,31,13,03,8.90
2015,08,31,13,04,5.10
2015,08,31,13,05,6.40
2015,08,31,13,06,6.20
2015,08,31,13,07,4.80
2015,08,31,13,08,5.30
2015,08,31,13,09,4.30
2015,08,31,13,10,5.40
2015,08,31,13,11,6.10
2015,08,31,13,12,2.70
2015,08,31,13,13,4.20
2015,08,31,13,14,3.80
2015,08,31,13,15,4.40
2015,08,31,13,16,4.30
2015,08,31,13,17,4.60
2015,08,31,13,18,4.20
2015,08,31,13,19,6.60
2015,08,31,13,20,4.50
2015,08,31,13,21,8.40
2015,08,31,13,22,6.30
2015,08,31,13,23,4.80
2015,08,31,13,24,5.40
2015,08,31,13,25,5.40
2015,08,31,13,26,5.70
2015,08,31,13,27,5.50
2015,08,31,13,28,3.30
2015,08,31,13,29,1.40
2015,08,31,13,30,1.80
2015,08,31,13,31,3.90
2015,08,31,13,32,4.30
2015,08,31,13,33,7.50
2015,08,31,13,34,2.80
2015,08,31,13,35,3.40
2015,08,31,13,36,3.70
2015,08,31,13,37,4.00
2015,08,31,13,38,6.70
2015,08,31,13,39,4.10
2015,08,31,13,40,2.40
2015,08,31,13,41,6.40
2015,08,31,13,42,8.00
2015,08,31,13,43,8.10
2015,08,31,13,44,5.50
2015,08,31,13,45,7.30
2015,08,31,13,46,6.10
2015,08,31,13,47,9.20
2015,08,31,13,48,5.60
2015,08,31,13,49,5.00
2015,08,31,13,50,3.90
2015,08,31,13,51,3.20
2015,08,31,13,52,5.40
2015,08,31,13,53,10.20
2015,08,31,13,54,4.30
2015,08,31,13,55,5.10
2015,08,31,13,56,3.60
2015,08,31,13,57,3.00
2015,08,31,13,58,5.10
2015,08,31,13,59,7.70
2015,08,31,14,00,10.30
2015,08,31,14,01,9.70
2015,08,31,14,02,8.60
2015,08,31,14,03,10.10
2015,08,31,14,04,9.10
2015,08,31,14,05,10.80
2015,08,31,14,06,9.10
2015,08,31,14,07,12.50
2015,08,31,14,08,8.20
2015,08,31,14,09,8.70
2015,08,31,14,10,8.90
2015,08,31,14,11,12.10
2015,08,31,14,12,10.10
2015,08,31,14,13,11.30
2015,08,31,14,14,8.10
2015,08,31,14,15,9.40
2015,08,31,14,16,6.30
2015,08,31,14,17,10.00
2015,08,31,14,18,6.50
2015,08,31,14,19,8.10
2015,08,31,14,20,8.00
2015,08,31,14,21,5.60
2015,08,31,14,22,6.60
2015,08,31,14,23,4.40
2015,08,31,14,24,8.80
2015,08,31,14,25,10.00
2015,08,31,14,26,6.40
2015,08,31,14,27,8.00
2015,08,31,14,28,8.10
2015,08,31,14,29,5.70
2015,08,31,14,30,8.80
2015,08,31,14,31,2.70
2015,08,31,14,32,2.90
2015,08,31,14,33,7.20
2015,08,31,14,34,11.70
2015,08,31,14,35,5.10
2015,08,31,14,36,6.40
2015,08,31,14,37,9.80
2015,08,31,14,38,8.40
2015,08,31,14,39,3.70
2015,08,31,14,40,6.40
2015,08,31,14,41,2.10
2015,08,31,14,42,1.70
2015,08,31,14,43,5.30
2015,08,31,14,44,2.60
2015,08,31,14,45,2.00
2015,08,31,14,46,4.60
2015,08,31,14,47,2.70
2015,08,31,14,48,2.00
2015,08,31,14,49,2.10
2015,08,31,14,50,6.40
2015,08,31,14,51,6.20
2015,08,31,14,52,7.80
2015,08,31,14,53,6.30
2015,08,31,14,54,12.80
2015,08,31,14,55,8.80
2015,08,31,14,56,11.30
2015,08,31,14,57,15.10
2015,08,31,14,58,7.20
2015,08,31,14,59,8.90
2015,08,31,15,00,9.30
2015,08,31,15,01,11.00
2015,08,31,15,02,6.90
2015,08,31,15,03,11.30
2015,08,31,15,04,6.60
2015,08,31,15,05,6.90
2015,08,31,15,06,5.40
2015,08,31,15,07,4.20
2015,08,31,15,08,7.40
2015,08,31,15,09,5.70
2015,08,31,15,10,9.50
2015,08,31,15,11,5.40
2015,08,31,15,12,7.50
2015,08,31,15,13,8.90
2015,08,31,15,14,10.10
2015,08,31,15,15,8.80
2015,08,31,15,16,6.50
2015,08,31,15,17,8.10
2015,08,31,15,18,10.50
2015,08,31,15,19,7.10
2015,08,31,15,20,4.30
2015,08,31,15,21,6.70
2015,08,31,15,22,7.40
2015,08,31,15,23,8.80
2015,08,31,15,24,6.30
2015,08,31,15,25,7.50
2015,08,31,15,26,5.10
2015,08,31,15,27,10.10
2015,08,31,15,28,6.00
2015,08,31,15,29,9.40
2015,08,31,15,30,12.70
2015,08,31,15,31,11.40
2015,08,31,15,32,10.30
2015,08,31,15,33,11.50
2015,08,31,15,34,13.60
2015,08,31,15,35,8.50
2015,08,31,15,36,5.80
2015,08,31,15,37,9.20
2015,08,31,15,38,16.20
2015,08,31,15,39,16.10
2015,08,31,15,40,10.40
2015,08,31,15,41,9.50
2015,08,31,15,42,9.30
2015,08,31,15,43,11.10
2015,08,31,15,44,10.80
2015,08,31,15,45,12.50
2015,08,31,15,46,6.40
2015,08,31,15,47,10.80
2015,08,31,15,48,7.50
2015,08,31,15,49,6.70
2015,08,31,15,50,4.80
2015,08,31,15,51,9.10
2015,08,31,15,52,7.10
2015,08,31,15,53,6.40
2015,08,31,15,54,9.00
2015,08,31,15,55,5.40
2015,08,31,15,56,7.20
2015,08,31,15,57,9.10
2015,08,31,15,58,8.70
2015,08,31,15,59,9.30
2015,08,31,16,00,7.50
2015,08,31,16,01,7.10
2015,08,31,16,02,9.10
2015,08,31,16,03,5.90
2015,08,31,16,04,10.90
2015,08,31,16,05,6.70
2015,08,31,16,06,6.30
2015,08,31,16,07,9.80
2015,08,31,16,08,7.90
2015,08,31,16,09,7.90
2015,08,31,16,10,7.30
2015,08,31,16,11,7.40
2015,08,31,16,12,6.10
2015,08,31,16,13,4.90
2015,08,31,16,14,10.90
2015,08,31,16,15,6.90
2015,08,31,16,16,12.00
2015,08,31,16,17,11.30
2015,08,31,16,18,7.70
2015,08,31,16,19,11.10
2015,08,31,16,20,9.90
2015,08,31,16,21,7.00
2015,08,31,16,22,7.40
2015,08,31,16,23,7.70
2015,08,31,16,29,8.70
2015,08,31,16,30,8.40
2015,08,31,16,31,11.60
2015,08,31,16,32,8.30
2015,08,31,16,33,6.90
2015,08,31,16,34,8.30
2015,08,31,16,35,8.10
2015,08,31,16,36,7.50
2015,08,31,16,37,11.10
2015,08,31,16,38,6.40
2015,08,31,16,39,5.70
2015,08,31,16,40,9.50
2015,08,31,16,41,9.10
2015,08,31,16,42,6.00
2015,08,31,16,43,3.70
2015,08,31,16,44,7.50
2015,08,31,16,45,8.30
2015,08,31,16,46,10.70
2015,08,31,16,47,8.30
2015,08,31,16,48,9.20
2015,08,31,16,49,10.30
2015,08,31,16,50,9.10
2015,08,31,16,51,6.10
2015,08,31,16,52,7.80
2015,08,31,16,53,7.40
2015,08,31,16,54,6.10
2015,08,31,16,55,9.70
2015,08,31,16,56,6.20
2015,08,31,16,57,8.80
2015,08,31,16,58,7.60
2015,08,31,16,59,7.90
2015,08,31,17,00,6.10
2015,08,31,17,01,4.80
2015,08,31,17,02,5.10
2015,08,31,17,03,7.80
2015,08,31,17,04,8.90
2015,08,31,17,05,4.80
2015,08,31,17,06,8.90
2015,08,31,17,07,6.10
2015,08,31,17,08,5.50
2015,08,31,17,09,11.40
2015,08,31,17,10,7.10
2015,08,31,17,11,4.30
2015,08,31,17,12,6.00
2015,08,31,17,13,11.80
2015,08,31,17,14,9.10
2015,08,31,17,15,5.80
2015,08,31,17,16,9.70
2015,08,31,17,17,7.00
2015,08,31,17,18,5.10
2015,08,31,17,19,9.40
2015,08,31,17,20,10.40
2015,08,31,17,21,5.90
2015,08,31,17,22,7.70
2015,08,31,17,23,6.50
2015,08,31,17,24,8.80
2015,08,31,17,25,8.50
2015,08,31,17,26,9.20
2015,08,31,17,27,8.60
2015,08,31,17,28,9.40
2015,08,31,17,29,8.90
2015,08,31,17,30,13.40
2015,08,31,17,31,10.10
2015,08,31,17,32,10.00
2015,08,31,17,33,10.00
2015,08,31,17,34,7.60
2015,08,31,17,35,11.10
2015,08,31,17,36,8.50
2015,08,31,17,37,8.90
2015,08,31,17,38,4.80
2015,08,31,17,39,5.70
2015,08,31,17,40,11.70
2015,08,31,17,41,9.40
2015,08,31,17,42,7.20
2015,08,31,17,43,6.30
2015,08,31,17,44,4.30
2015,08,31,17,45,7.30
2015,08,31,17,46,10.10
2015,08,31,17,47,13.60
2015,08,31,17,48,9.40
2015,08,31,17,49,5.70
2015,08,31,17,50,11.80
2015,08,31,17,51,8.50
2015,08,31,17,52,8.60
2015,08,31,17,53,5.00
2015,08,31,17,54,7.50
2015,08,31,17,55,5.10
2015,08,31,17,56,4.50
2015,08,31,17,57,5.20
2015,08,31,17,58,2.00
2015,08,31,17,59,0.80
2015,08,31,18,00,2.60
2015,08,31,18,01,1.40
2015,08,31,18,02,5.40
2015,08,31,18,03,3.20
2015,08,31,18,04,1.60
2015,08,31,18,05,2.40
2015,08,31,18,06,2.50
2015,08,31,18,07,4.00
2015,08,31,18,08,2.00
2015,08,31,18,09,1.70